FW4174 Weather Reports


time (UTC)temp
C
wind
direction
speed
KPH
gust
KPH
rain 1hr
cm
rain 24hr
cm
rain mn
cm
humidity
%
barometer
mb
20260502170105 16 243 11.3 24.1 0.00 0.00 0.00 33 1017.1
20260502164044 15 227 12.9 27.4 0.00 0.00 0.00 34 1017.4
20260502163545 15 264 4.8 22.5 0.00 0.00 0.00 35 1017.4
20260502163100 15 234 8.0 22.5 0.00 0.00 0.00 34 1017.5
20260502162545 15 269 11.3 20.9 0.00 0.00 0.00 35 1017.6
20260502162048 15 240 6.4 17.7 0.00 0.00 0.00 35 1017.6
20260502161601 15 273 3.2 19.3 0.00 0.00 0.00 37 1017.7
20260502161047 15 236 8.0 22.5 0.00 0.00 0.00 36 1017.7
20260502160544 14 245 11.3 22.5 0.00 0.00 0.00 35 1017.7
20260502152045 12 246 16.1 24.1 0.00 0.00 0.00 38 1018.2
20260502151606 12 244 14.5 20.9 0.00 0.00 0.00 38 1018.2
20260502151047 12 242 9.7 20.9 0.00 0.00 0.00 40 1018.3
20260502150544 12 246 9.7 22.5 0.00 0.00 0.00 39 1018.3
20260502130545 7 245 14.5 20.9 0.00 0.00 0.00 62 1019.0
20260502130103 6 245 16.1 20.9 0.00 0.00 0.00 64 1019.0
20260502123544 3 236 6.4 11.3 0.00 0.00 0.00 74 1019.0
20260502123050 3 257 4.8 11.3 0.00 0.00 0.00 76 1018.9
20260502122544 3 226 6.4 11.3 0.00 0.00 0.00 76 1019.0
20260502122045 2 234 6.4 12.9 0.00 0.00 0.00 76 1019.0
20260502121553 2 223 6.4 14.5 0.00 0.00 0.00 76 1019.0
20260502121046 2 240 9.7 14.5 0.00 0.00 0.00 76 1019.0
20260502120545 2 244 8.0 12.9 0.00 0.00 0.00 76 1018.9
20260502115544 1 240 6.4 9.7 0.00 0.00 0.00 77 1019.0
20260502115044 1 242 4.8 8.0 0.00 0.00 0.00 77 1019.0
20260502114551 1 256 4.8 6.4 0.00 0.00 0.00 77 1019.1
20260502114045 1 244 3.2 8.0 0.00 0.00 0.00 77 1018.9
20260502113544 1 246 3.2 8.0 0.00 0.00 0.00 77 1018.9
20260502113053 1 239 4.8 8.0 0.00 0.00 0.00 77 1018.9
20260502112546 1 236 4.8 9.7 0.00 0.00 0.00 77 1018.9
20260502112044 1 246 4.8 9.7 0.00 0.00 0.00 76 1018.9
20260502111550 1 234 4.8 11.3 0.00 0.00 0.00 76 1018.9
20260502111046 1 232 4.8 11.3 0.00 0.00 0.00 75 1019.0
20260502110546 1 236 6.4 11.3 0.00 0.00 0.00 75 1019.0
20260502105545 1 236 6.4 12.9 0.00 0.00 0.00 74 1019.0
20260502105044 1 242 8.0 12.9 0.00 0.00 0.00 74 1019.0
20260502104550 2 245 8.0 12.9 0.00 0.00 0.00 74 1019.1
20260502104044 1 237 8.0 12.9 0.00 0.00 0.00 74 1019.0
20260502103545 1 235 9.7 12.9 0.00 0.00 0.00 75 1019.1
20260502103054 1 240 8.0 12.9 0.00 0.00 0.00 75 1019.1
20260502102545 1 241 8.0 11.3 0.00 0.00 0.00 76 1019.0
20260502102047 1 240 6.4 11.3 0.00 0.00 0.00 75 1019.1
20260502101557 1 228 4.8 9.7 0.00 0.00 0.00 75 1019.0
20260502101046 1 232 4.8 9.7 0.00 0.00 0.00 75 1018.9
20260502100545 1 241 4.8 8.0 0.00 0.00 0.00 75 1018.9
20260502091045 2 238 3.2 8.0 0.00 0.00 0.00 71 1018.8
20260502090544 2 246 4.8 11.3 0.00 0.00 0.00 71 1018.8
20260502090113 2 240 6.4 11.3 0.00 0.00 0.00 71 1018.7
20260502071047 2 242 6.4 8.0 0.00 0.00 0.00 71 1019.0
20260502070546 2 236 4.8 8.0 0.00 0.00 0.00 70 1019.0
20260502070106 2 238 4.8 8.0 0.00 0.00 0.00 70 1018.9
20260502065548 2 236 4.8 8.0 0.00 0.00 0.00 70 1019.2
20260502065048 2 246 4.8 8.0 0.00 0.00 0.00 70 1019.2
20260502064610 2 244 3.2 6.4 0.00 0.00 0.00 69 1019.1
20260502064047 2 253 3.2 8.0 0.00 0.00 0.00 69 1019.1
20260502063547 2 244 4.8 11.3 0.00 0.00 0.00 69 1019.3
20260502063057 3 241 6.4 11.3 0.00 0.00 0.00 69 1019.3
20260502062547 3 252 6.4 11.3 0.00 0.00 0.00 68 1019.3
20260502062048 3 245 4.8 11.3 0.00 0.00 0.00 68 1019.3
20260502061549 3 242 8.0 11.3 0.00 0.00 0.00 68 1019.2
20260502061047 3 227 6.4 8.0 0.00 0.00 0.00 68 1019.3
20260502060547 3 248 4.8 8.0 0.00 0.00 0.00 67 1019.4
20260502060053 3 242 1.6 8.0 0.00 0.00 0.00 67 1019.4
20260502055547 3 239 4.8 12.9 0.00 0.00 0.00 67 1019.4
20260502055048 3 242 4.8 12.9 0.00 0.00 0.00 67 1019.3
20260502054556 3 240 9.7 12.9 0.00 0.00 0.00 67 1019.3
20260502054051 3 242 8.0 11.3 0.00 0.00 0.00 66 1019.2
20260502053548 3 240 6.4 12.9 0.00 0.00 0.00 65 1019.3
20260502053058 4 239 8.0 12.9 0.00 0.00 0.00 65 1019.3
20260502052547 4 257 8.0 12.9 0.00 0.00 0.00 65 1019.3
20260502052048 4 249 8.0 11.3 0.00 0.00 0.00 65 1019.3
20260502051554 4 238 8.0 11.3 0.00 0.00 0.00 64 1019.3
20260502051046 4 250 8.0 11.3 0.00 0.00 0.00 64 1019.3
20260502050548 4 239 6.4 11.3 0.00 0.00 0.00 64 1019.2
20260502050055 4 237 6.4 11.3 0.00 0.00 0.00 63 1019.3
20260502045547 5 239 8.0 11.3 0.00 0.00 0.00 63 1019.3
20260502045048 5 237 6.4 11.3 0.00 0.00 0.00 63 1019.3
20260502044557 5 240 6.4 11.3 0.00 0.00 0.00 63 1019.3
20260502044046 5 239 6.4 11.3 0.00 0.00 0.00 63 1019.3
20260502043547 5 243 6.4 11.3 0.00 0.00 0.00 63 1019.1
20260502043054 5 253 6.4 11.3 0.00 0.00 0.00 63 1019.3
20260502042547 5 248 4.8 8.0 0.00 0.00 0.00 63 1019.2
20260502042048 5 244 4.8 8.0 0.00 0.00 0.00 62 1019.2
20260502041559 5 237 4.8 8.0 0.00 0.00 0.00 61 1019.2
20260502041047 5 238 4.8 8.0 0.00 0.00 0.00 60 1019.2
20260502040548 5 240 4.8 8.0 0.00 0.00 0.00 59 1019.1
20260502040054 5 239 4.8 8.0 0.00 0.00 0.00 59 1019.1
20260502035549 6 238 4.8 6.4 0.00 0.00 0.00 57 1019.2
20260502035047 6 246 3.2 6.4 0.00 0.00 0.00 58 1019.2
20260502034553 6 236 3.2 6.4 0.00 0.00 0.00 55 1019.2
20260502034047 6 224 1.6 4.8 0.00 0.00 0.00 55 1019.3
20260502033549 6 225 3.2 6.4 0.00 0.00 0.00 55 1019.2
20260502033108 6 232 3.2 6.4 0.00 0.00 0.00 56 1019.3
20260502032548 6 233 4.8 6.4 0.00 0.00 0.00 56 1019.2
20260502032050 6 216 4.8 6.4 0.00 0.00 0.00 57 1019.3
20260502031559 6 205 3.2 4.8 0.00 0.00 0.00 57 1019.2
20260502031045 6 211 1.6 6.4 0.00 0.00 0.00 57 1019.3
20260502030546 6 218 1.6 6.4 0.00 0.00 0.00 57 1019.3
20260502030057 6 141 1.6 3.2 0.00 0.00 0.00 57 1019.3
20260502025546 6 141 1.6 3.2 0.00 0.00 0.00 58 1019.3
20260502025049 6 141 0.0 3.2 0.00 0.00 0.00 59 1019.2
20260502024609 6 0 0.0 3.2 0.00 0.00 0.00 58 1019.3
20260502024047 7 147 0.0 3.2 0.00 0.00 0.00 53 1019.2
20260502023547 7 263 1.6 3.2 0.00 0.00 0.00 51 1019.2
20260502023121 7 263 1.6 3.2 0.00 0.00 0.00 53 1019.2
20260502022544 7 263 1.6 3.2 0.00 0.00 0.00 52 1019.1
20260502022046 7 263 1.6 3.2 0.00 0.00 0.00 49 1019.1
20260502021602 7 11 0.0 1.6 0.00 0.00 0.00 49 1019.0
20260502021047 7 0 0.0 1.6 0.00 0.00 0.00 49 1018.9
20260502020548 7 0 0.0 1.6 0.00 0.00 0.00 49 1019.0
20260502020055 7 0 0.0 0.0 0.00 0.00 0.00 49 1018.8
20260502015548 7 0 0.0 0.0 0.00 0.00 0.00 49 1018.7
20260502015048 7 0 0.0 0.0 0.00 0.00 0.00 50 1018.6
20260502014550 7 0 0.0 0.0 0.00 0.00 0.00 49 1018.7
20260502014047 7 0 0.0 0.0 0.00 0.00 0.00 49 1018.6
20260502013546 8 0 0.0 0.0 0.00 0.00 0.00 49 1018.5
20260502013057 8 0 0.0 0.0 0.00 0.00 0.00 49 1018.5
20260502012545 8 0 0.0 3.2 0.00 0.00 0.00 49 1018.5
20260502012047 8 0 0.0 3.2 0.00 0.00 0.00 48 1018.4
20260502011552 8 0 0.0 4.8 0.00 0.00 0.00 48 1018.4
20260502011046 9 0 0.0 6.4 0.00 0.00 0.00 47 1018.4
20260502010546 9 11 1.6 8.0 0.00 0.00 0.00 46 1018.4
20260502010055 9 13 1.6 8.0 0.00 0.00 0.00 45 1018.4
20260502005544 9 5 3.2 12.9 0.00 0.00 0.00 45 1018.4
20260502005049 10 306 3.2 14.5 0.00 0.00 0.00 45 1018.4
20260502004559 10 312 6.4 14.5 0.00 0.00 0.00 44 1018.4
20260502004047 10 9 6.4 11.3 0.00 0.00 0.00 44 1018.3
20260502003549 10 14 3.2 11.3 0.00 0.00 0.00 42 1018.4
20260502003049 10 17 3.2 8.0 0.00 0.00 0.00 42 1018.3
20260502002550 10 336 1.6 6.4 0.00 0.00 0.00 42 1018.4
20260502002047 10 0 0.0 6.4 0.00 0.00 0.00 42 1018.4
20260502001637 10 324 3.2 6.4 0.00 0.00 0.00 43 1018.3
20260502001046 10 316 0.0 6.4 0.00 0.00 0.00 45 1018.3
20260502000549 10 324 3.2 9.7 0.00 0.00 0.00 44 1018.3
20260502000110 10 323 3.2 11.3 0.00 0.00 0.00 44 1018.3
20260501235546 10 327 4.8 16.1 0.00 0.00 0.00 43 1018.3
20260501235046 10 328 6.4 16.1 0.00 0.00 0.00 42 1018.4
20260501234556 10 331 4.8 12.9 0.00 0.00 0.00 43 1018.4
20260501234048 10 326 6.4 14.5 0.00 0.00 0.00 42 1018.3
20260501233548 10 328 6.4 16.1 0.00 0.00 0.00 41 1018.3
20260501233102 11 321 9.7 17.7 0.00 0.00 0.00 40 1018.3
20260501232547 11 325 6.4 17.7 0.00 0.00 0.00 40 1018.3
20260501232046 11 338 6.4 14.5 0.00 0.00 0.00 39 1018.3
20260501231608 11 9 3.2 14.5 0.00 0.00 0.00 40 1018.2
20260501231048 10 316 6.4 12.9 0.00 0.00 0.00 42 1018.2
20260501230547 10 316 3.2 14.5 0.00 0.00 0.00 43 1018.3
20260501230100 11 324 4.8 14.5 0.00 0.00 0.00 42 1018.3
20260501225546 11 335 4.8 14.5 0.00 0.00 0.00 41 1018.3
20260501225047 11 311 6.4 16.1 0.00 0.00 0.00 41 1018.3
20260501224612 11 337 8.0 16.1 0.00 0.00 0.00 41 1018.3
20260501224046 11 342 6.4 16.1 0.00 0.00 0.00 41 1018.4
20260501223547 12 311 8.0 16.1 0.00 0.00 0.00 40 1018.3
20260501223103 12 317 4.8 14.5 0.00 0.00 0.00 39 1018.2
20260501222550 12 321 1.6 12.9 0.00 0.00 0.00 38 1018.3
20260501222047 12 302 3.2 17.7 0.00 0.00 0.00 38 1018.3
20260501221552 12 346 3.2 17.7 0.00 0.00 0.00 39 1018.2
20260501221047 12 209 8.0 17.7 0.00 0.00 0.00 39 1018.2
20260501220547 12 336 4.8 12.9 0.00 0.00 0.00 40 1018.2
20260501220054 12 338 4.8 19.3 0.00 0.00 0.00 40 1018.2
20260501215547 11 323 4.8 24.1 0.00 0.00 0.00 43 1018.2
20260501215045 11 302 12.9 24.1 0.00 0.00 0.00 40 1018.2
20260501214551 11 317 9.7 20.9 0.00 0.00 0.00 41 1018.2
20260501214046 11 27 8.0 19.3 0.00 0.00 0.00 41 1018.3
20260501213545 11 317 8.0 19.3 0.00 0.00 0.00 39 1018.2
20260501213050 11 351 11.3 17.7 0.00 0.00 0.00 41 1018.2
20260501212545 11 321 8.0 17.7 0.00 0.00 0.00 40 1018.2
20260501212048 12 324 6.4 14.5 0.00 0.00 0.00 41 1018.2
20260501211550 11 13 4.8 12.9 0.00 0.00 0.00 45 1018.2
20260501211047 11 21 4.8 12.9 0.00 0.00 0.00 41 1018.3
20260501210546 11 309 8.0 17.7 0.00 0.00 0.00 42 1018.3
20260501210051 11 306 3.2 20.9 0.00 0.00 0.00 44 1018.4
20260501205546 11 333 11.3 20.9 0.00 0.00 0.00 40 1018.3
20260501205046 12 360 14.5 20.9 0.00 0.00 0.00 41 1018.4
20260501204553 12 318 3.2 17.7 0.00 0.00 0.00 44 1018.4
20260501204045 11 242 3.2 12.9 0.00 0.00 0.00 42 1018.4
20260501203545 11 330 4.8 17.7 0.00 0.00 0.00 45 1018.5
20260501203052 11 281 4.8 20.9 0.00 0.00 0.00 45 1018.5
20260501202547 11 51 9.7 30.6 0.00 0.00 0.00 44 1018.4
20260501202048 11 331 11.3 30.6 0.00 0.00 0.00 43 1018.5
20260501201554 11 271 1.6 20.9 0.00 0.00 0.00 45 1018.5
20260501201048 10 261 4.8 20.9 0.00 0.00 0.00 43 1018.6
20260501200546 10 329 9.7 27.4 0.00 0.00 0.00 45 1018.6
20260501200054 10 306 9.7 27.4 0.00 0.00 0.00 44 1018.6
20260501195546 10 331 9.7 19.3 0.00 0.00 0.00 45 1018.5
20260501195046 10 337 9.7 17.7 0.00 0.00 0.00 43 1018.6
20260501194559 10 306 3.2 8.0 0.00 0.00 0.00 44 1018.5
20260501194047 10 303 3.2 17.7 0.00 0.00 0.00 45 1018.6
20260501193548 10 350 6.4 17.7 0.00 0.00 0.00 45 1018.6
20260501193050 10 316 6.4 22.5 0.00 0.00 0.00 45 1018.6
20260501192545 11 319 12.9 22.5 0.00 0.00 0.00 44 1018.6
20260501192049 11 19 9.7 22.5 0.00 0.00 0.00 46 1018.6
20260501191555 11 283 4.8 11.3 0.00 0.00 0.00 47 1018.5
20260501191045 10 315 3.2 11.3 0.00 0.00 0.00 46 1018.6
20260501190547 10 329 4.8 12.9 0.00 0.00 0.00 48 1018.5
20260501190050 10 306 4.8 16.1 0.00 0.00 0.00 48 1018.6
20260501185547 10 318 6.4 19.3 0.00 0.00 0.00 48 1018.7
20260501185047 10 305 11.3 20.9 0.00 0.00 0.00 47 1018.6
20260501184555 10 306 11.3 20.9 0.00 0.00 0.00 46 1018.6
20260501184048 10 318 4.8 17.7 0.00 0.00 0.00 50 1018.6
20260501183549 10 329 8.0 17.7 0.00 0.00 0.00 47 1018.5
20260501183051 10 300 8.0 16.1 0.00 0.00 0.00 50 1018.4
20260501182546 9 9 6.4 22.5 0.00 0.00 0.00 49 1018.5
20260501182045 9 360 12.9 22.5 0.00 0.00 0.00 48 1018.5
20260501181606 10 16 11.3 22.5 0.00 0.00 0.00 49 1018.6
20260501181048 10 17 12.9 22.5 0.00 0.00 0.00 48 1018.6
20260501180545 10 341 4.8 30.6 0.00 0.00 0.00 50 1018.5
20260501180101 10 22 12.9 30.6 0.00 0.00 0.00 53 1018.6
20260501175548 9 350 6.4 16.1 0.00 0.00 0.00 51 1018.7